This is the latest recevied weather packets stored in our database for station/object W8KVG. If no packets are shown the sender has not sent any weather packets the latest 10 day(s).
| Time | Temp. | Humidity | Pressure | Rain* | Wind** | Luminosity | Snow |
|---|---|---|---|---|---|---|---|
| 1778026663 | 20.56° C | 56% | 1006.5 hPa | 0 mm | - | 1 W/m² | - |
| 1778026361 | 20.56° C | 56% | 1006.5 hPa | 0 mm | - | 2 W/m² | - |
| 1778026058 | 20.56° C | 56% | 1007 hPa | 0 mm | - | 2 W/m² | - |
| 1778025755 | 20.56° C | 56% | 1007 hPa | 0 mm | - | 3 W/m² | - |
| 1778025452 | 20.56° C | 57% | 1006.9 hPa | 0 mm | - | 4 W/m² | - |
| 1778025150 | 20.56° C | 57% | 1006.8 hPa | 0 mm | - | 4 W/m² | - |
| 1778024847 | 20.56° C | 57% | 1006.9 hPa | 0 mm | - | 7 W/m² | - |
| 1778024545 | 20.56° C | 58% | 1006.8 hPa | 0 mm | - | 13 W/m² | - |
| 1778024240 | 20.56° C | 58% | 1006.4 hPa | 0 mm | - | 12 W/m² | - |
| 1778023939 | 20.56° C | 59% | 1006.4 hPa | 0 mm | - | 14 W/m² | - |
| 1778023636 | 20.56° C | 58% | 1006.5 hPa | 0 mm | - | 19 W/m² | - |
| 1778023333 | 20.56° C | 58% | 1006.6 hPa | 0 mm | - | 25 W/m² | - |
| 1778023030 | 20.56° C | 59% | 1006.6 hPa | 0 mm | - | 21 W/m² | - |
| 1778022729 | 21.11° C | 58% | 1006.6 hPa | 0 mm | - | 17 W/m² | - |
| 1778022426 | 21.11° C | 57% | 1006.6 hPa | 0 mm | - | 16 W/m² | - |
| 1778022123 | 21.11° C | 57% | 1006.8 hPa | 0 mm | - | 30 W/m² | - |
| 1778021819 | 21.11° C | 57% | 1006.8 hPa | 0 mm | - | 48 W/m² | - |
| 1778021516 | 21.11° C | 57% | 1006.8 hPa | 0 mm | - | 51 W/m² | - |
| 1778021211 | 21.11° C | 57% | 1006.8 hPa | 0 mm | - | 43 W/m² | - |
| 1778020910 | 21.11° C | 56% | 1006.9 hPa | 0 mm | - | 47 W/m² | - |
| 1778020607 | 21.11° C | 57% | 1006.8 hPa | 0 mm | - | 64 W/m² | - |
| 1778020302 | 21.11° C | 57% | 1006.9 hPa | 0 mm | - | 59 W/m² | - |
| 1778019999 | 21.11° C | 56% | 1007 hPa | 0 mm | - | 56 W/m² | - |
| 1778019695 | 21.67° C | 57% | 1007.1 hPa | 0 mm | - | 57 W/m² | - |
| 1778019392 | 21.67° C | 55% | 1006.8 hPa | 0 mm | - | 56 W/m² | - |
* Rain latest hour (hover to see other rain measurements)
** Current wind speed in m/s (hover to see current wind gust speed)